Time,TemperatureF,DewpointF,PressureIn,WindDirection,WindDirectionDegrees,WindSpeedMPH,WindSpeedGustMPH,Humidity,HourlyPrecipIn,Conditions,Clouds,dailyrainin,SoftwareType,DateUTC
2013-03-11 00:22:00,45.9,45.0,29.64,SSW,199,1.0,5.0,97,0.02,,,0.02,weatherlink.com 1.10,2013-03-11 05:22:00,
2013-03-11 00:37:00,45.8,45.0,29.63,WSW,248,2.0,6.0,97,0.02,,,0.02,weatherlink.com 1.10,2013-03-11 05:37:00,
2013-03-11 00:52:00,45.9,45.0,29.64,WSW,254,6.0,10.0,97,0.01,,,0.02,weatherlink.com 1.10,2013-03-11 05:52:00,
2013-03-11 01:07:00,45.7,45.0,29.64,SW,217,3.0,10.0,97,0.00,,,0.02,weatherlink.com 1.10,2013-03-11 06:07:00,
2013-03-11 01:22:00,45.3,45.0,29.64,SW,235,3.0,6.0,97,0.00,,,0.02,weatherlink.com 1.10,2013-03-11 06:22:00,
2013-03-11 01:37:00,45.2,44.0,29.64,WSW,254,2.0,5.0,96,0.00,,,0.02,weatherlink.com 1.10,2013-03-11 06:37:00,
2013-03-11 01:52:00,45.0,44.0,29.64,West,265,5.0,13.0,96,0.00,,,0.02,weatherlink.com 1.10,2013-03-11 06:52:00,
2013-03-11 02:07:00,43.8,43.0,29.64,WSW,240,8.0,13.0,95,0.00,,,0.02,weatherlink.com 1.10,2013-03-11 07:07:00,
2013-03-11 02:22:00,42.2,41.0,29.64,SW,228,11.0,17.0,95,0.00,,,0.02,weatherlink.com 1.10,2013-03-11 07:22:00,
2013-03-11 02:38:00,40.7,40.0,29.65,WSW,238,16.0,16.0,96,0.00,,,0.02,weatherlink.com 1.10,2013-03-11 07:38:00,
2013-03-11 02:53:00,39.3,38.0,29.65,West,259,13.0,19.0,96,0.00,,,0.02,weatherlink.com 1.10,2013-03-11 07:53:00,
2013-03-11 03:08:00,38.9,38.0,29.65,SW,231,10.0,18.0,96,0.00,,,0.02,weatherlink.com 1.10,2013-03-11 08:08:00,
2013-03-11 03:23:00,38.7,38.0,29.65,SSW,203,5.0,13.0,96,0.00,,,0.02,weatherlink.com 1.10,2013-03-11 08:23:00,
2013-03-11 03:38:00,38.5,38.0,29.63,West,280,7.0,15.0,96,0.00,,,0.02,weatherlink.com 1.10,2013-03-11 08:38:00,
2013-03-11 03:53:00,38.2,37.0,29.63,NW,317,5.0,14.0,96,0.00,,,0.02,weatherlink.com 1.10,2013-03-11 08:53:00,
2013-03-11 04:08:00,38.0,37.0,29.62,West,281,4.0,16.0,96,0.00,,,0.02,weatherlink.com 1.10,2013-03-11 09:08:00,
2013-03-11 04:23:00,37.8,37.0,29.62,NW,317,6.0,14.0,96,0.00,,,0.02,weatherlink.com 1.10,2013-03-11 09:23:00,
2013-03-11 04:38:00,37.3,36.0,29.61,WNW,294,9.0,15.0,95,0.00,,,0.02,weatherlink.com 1.10,2013-03-11 09:38:00,
2013-03-11 04:53:00,37.1,36.0,29.62,WNW,295,6.0,12.0,95,0.00,,,0.02,weatherlink.com 1.10,2013-03-11 09:53:00,
2013-03-11 05:08:00,36.8,36.0,29.64,SW,227,3.0,14.0,95,0.00,,,0.02,weatherlink.com 1.10,2013-03-11 10:08:00,
2013-03-11 05:23:00,36.5,36.0,29.64,WSW,237,6.0,12.0,96,0.00,,,0.02,weatherlink.com 1.10,2013-03-11 10:23:00,
2013-03-11 05:38:00,36.4,35.0,29.65,West,261,10.0,15.0,96,0.00,,,0.02,weatherlink.com 1.10,2013-03-11 10:38:00,
2013-03-11 05:53:00,36.2,35.0,29.65,WSW,245,7.0,12.0,95,0.00,,,0.02,weatherlink.com 1.10,2013-03-11 10:53:00,
2013-03-11 06:08:00,36.2,35.0,29.65,SW,230,11.0,15.0,95,0.00,,,0.02,weatherlink.com 1.10,2013-03-11 11:08:00,
2013-03-11 06:23:00,36.1,35.0,29.65,SW,218,8.0,12.0,95,0.00,,,0.02,weatherlink.com 1.10,2013-03-11 11:23:00,
2013-03-11 06:38:00,36.0,35.0,29.66,SW,232,10.0,13.0,96,0.00,,,0.02,weatherlink.com 1.10,2013-03-11 11:38:00,
2013-03-11 06:53:00,35.7,35.0,29.66,WSW,240,6.0,12.0,96,0.00,,,0.02,weatherlink.com 1.10,2013-03-11 11:53:00,
2013-03-11 07:08:00,35.6,35.0,29.66,WSW,239,6.0,14.0,96,0.00,,,0.02,weatherlink.com 1.10,2013-03-11 12:08:00,
2013-03-11 07:23:00,35.3,34.0,29.66,West,279,11.0,16.0,96,0.00,,,0.02,weatherlink.com 1.10,2013-03-11 12:23:00,
2013-03-11 07:38:00,35.4,34.0,29.66,SW,223,7.0,14.0,96,0.00,,,0.02,weatherlink.com 1.10,2013-03-11 12:38:00,
2013-03-11 07:53:00,35.3,34.0,29.66,West,269,9.0,13.0,95,0.00,,,0.02,weatherlink.com 1.10,2013-03-11 12:53:00,
2013-03-11 08:08:00,35.3,34.0,29.65,WSW,256,6.0,14.0,95,0.00,,,0.02,weatherlink.com 1.10,2013-03-11 13:08:00,
2013-03-11 08:23:00,35.1,34.0,29.65,WSW,242,9.0,15.0,95,0.00,,,0.02,weatherlink.com 1.10,2013-03-11 13:23:00,
2013-03-11 08:38:00,35.0,34.0,29.65,WSW,246,8.0,14.0,95,0.00,,,0.02,weatherlink.com 1.10,2013-03-11 13:38:00,
2013-03-11 08:53:00,35.0,34.0,29.65,West,274,5.0,13.0,95,0.00,,,0.02,weatherlink.com 1.10,2013-03-11 13:53:00,
2013-03-11 09:08:00,35.0,34.0,29.65,West,276,6.0,12.0,96,0.00,,,0.02,weatherlink.com 1.10,2013-03-11 14:08:00,
2013-03-11 09:23:00,35.0,34.0,29.66,WSW,246,7.0,15.0,95,0.00,,,0.02,weatherlink.com 1.10,2013-03-11 14:23:00,
2013-03-11 09:38:00,35.0,34.0,29.66,SSW,195,1.0,16.0,95,0.00,,,0.02,weatherlink.com 1.10,2013-03-11 14:38:00,
2013-03-11 09:53:00,35.1,34.0,29.66,SW,216,7.0,12.0,95,0.00,,,0.02,weatherlink.com 1.10,2013-03-11 14:53:00,
2013-03-11 10:08:00,35.2,34.0,29.65,WSW,240,8.0,12.0,95,0.00,,,0.02,weatherlink.com 1.10,2013-03-11 15:08:00,
2013-03-11 10:23:00,35.3,34.0,29.65,SW,218,7.0,13.0,95,0.01,,,0.03,weatherlink.com 1.10,2013-03-11 15:23:00,
2013-03-11 10:38:00,35.6,34.0,29.65,West,269,11.0,13.0,95,0.01,,,0.03,weatherlink.com 1.10,2013-03-11 15:38:00,
2013-03-11 11:08:00,35.5,34.0,29.66,SW,225,11.0,17.0,95,0.00,,,0.03,weatherlink.com 1.10,2013-03-11 16:08:00,
2013-03-11 11:23:00,35.5,34.0,29.66,WSW,249,7.0,16.0,95,0.00,,,0.03,weatherlink.com 1.10,2013-03-11 16:23:00,
2013-03-11 11:38:00,35.3,34.0,29.66,West,271,13.0,17.0,95,0.00,,,0.03,weatherlink.com 1.10,2013-03-11 16:38:00,
2013-03-11 11:53:00,35.3,34.0,29.66,WSW,249,6.0,17.0,95,0.00,,,0.03,weatherlink.com 1.10,2013-03-11 16:53:00,
2013-03-11 12:23:00,35.9,35.0,29.66,NW,316,8.0,18.0,95,0.00,,,0.03,weatherlink.com 1.10,2013-03-11 17:23:00,
2013-03-11 12:38:00,36.1,35.0,29.66,West,273,21.0,21.0,95,0.00,,,0.03,weatherlink.com 1.10,2013-03-11 17:38:00,
2013-03-11 12:53:00,36.1,35.0,29.66,WNW,293,17.0,21.0,94,0.00,,,0.03,weatherlink.com 1.10,2013-03-11 17:53:00,
2013-03-11 13:08:00,36.1,35.0,29.66,West,277,11.0,25.0,94,0.00,,,0.03,weatherlink.com 1.10,2013-03-11 18:08:00,
2013-03-11 13:23:00,36.2,34.0,29.66,NW,305,13.0,26.0,93,0.00,,,0.03,weatherlink.com 1.10,2013-03-11 18:23:00,
2013-03-11 13:38:00,36.0,34.0,29.66,West,260,13.0,24.0,93,0.00,,,0.03,weatherlink.com 1.10,2013-03-11 18:38:00,
2013-03-11 13:53:00,35.9,34.0,29.66,West,280,11.0,25.0,93,0.00,,,0.03,weatherlink.com 1.10,2013-03-11 18:53:00,
2013-03-11 14:08:00,35.4,33.0,29.66,NW,311,17.0,26.0,92,0.00,,,0.03,weatherlink.com 1.10,2013-03-11 19:08:00,
2013-03-11 14:24:00,35.7,33.0,29.67,WNW,292,15.0,21.0,91,0.00,,,0.03,weatherlink.com 1.10,2013-03-11 19:24:00,
2013-03-11 14:39:00,35.7,33.0,29.68,NW,311,15.0,25.0,89,0.00,,,0.03,weatherlink.com 1.10,2013-03-11 19:39:00,
2013-03-11 15:09:00,35.2,33.0,29.69,West,264,15.0,25.0,91,0.00,,,0.03,weatherlink.com 1.10,2013-03-11 20:09:00,
2013-03-11 15:24:00,35.2,32.0,29.70,West,277,19.0,24.0,89,0.00,,,0.03,weatherlink.com 1.10,2013-03-11 20:24:00,
2013-03-11 15:39:00,34.9,32.0,29.70,West,267,19.0,23.0,89,0.00,,,0.03,weatherlink.com 1.10,2013-03-11 20:39:00,
2013-03-11 15:54:00,34.8,32.0,29.71,WNW,294,9.0,22.0,88,0.00,,,0.03,weatherlink.com 1.10,2013-03-11 20:54:00,
2013-03-11 16:09:00,34.6,31.0,29.73,West,263,10.0,22.0,87,0.00,,,0.03,weatherlink.com 1.10,2013-03-11 21:09:00,
2013-03-11 16:24:00,34.3,31.0,29.73,WNW,282,13.0,21.0,87,0.00,,,0.03,weatherlink.com 1.10,2013-03-11 21:24:00,
2013-03-11 16:39:00,34.2,31.0,29.74,WNW,296,13.0,23.0,87,0.00,,,0.03,weatherlink.com 1.10,2013-03-11 21:39:00,
2013-03-11 16:54:00,34.2,31.0,29.74,West,269,17.0,25.0,86,0.00,,,0.03,weatherlink.com 1.10,2013-03-11 21:54:00,
2013-03-11 17:09:00,33.8,30.0,29.75,WNW,300,17.0,25.0,85,0.00,,,0.03,weatherlink.com 1.10,2013-03-11 22:09:00,
2013-03-11 17:24:00,33.8,30.0,29.76,WNW,294,9.0,25.0,87,0.00,,,0.03,weatherlink.com 1.10,2013-03-11 22:24:00,
2013-03-11 17:39:00,33.4,30.0,29.76,WNW,302,13.0,22.0,88,0.00,,,0.03,weatherlink.com 1.10,2013-03-11 22:39:00,
2013-03-11 18:09:00,33.2,30.0,29.78,NW,317,11.0,23.0,86,0.00,,,0.03,weatherlink.com 1.10,2013-03-11 23:09:00,
2013-03-11 18:39:00,32.8,29.0,29.80,WNW,296,14.0,23.0,87,0.00,,,0.03,weatherlink.com 1.10,2013-03-11 23:39:00,
2013-03-11 18:54:00,32.7,29.0,29.81,WNW,289,13.0,20.0,87,0.00,,,0.03,weatherlink.com 1.10,2013-03-11 23:54:00,
2013-03-11 19:09:00,32.6,30.0,29.81,WNW,291,11.0,20.0,88,0.00,,,0.03,weatherlink.com 1.10,2013-03-12 00:09:00,
2013-03-11 19:24:00,32.6,29.0,29.82,NW,310,16.0,32.0,87,0.00,,,0.03,weatherlink.com 1.10,2013-03-12 00:24:00,
2013-03-11 19:39:00,32.5,29.0,29.83,NW,305,16.0,24.0,86,0.00,,,0.03,weatherlink.com 1.10,2013-03-12 00:39:00,
2013-03-11 19:54:00,32.4,29.0,29.84,NW,308,12.0,16.0,87,0.00,,,0.03,weatherlink.com 1.10,2013-03-12 00:54:00,
2013-03-11 20:09:00,32.2,29.0,29.84,North,360,7.0,19.0,87,0.00,,,0.03,weatherlink.com 1.10,2013-03-12 01:09:00,
2013-03-11 20:25:00,32.2,29.0,29.85,WNW,290,8.0,18.0,86,0.00,,,0.03,weatherlink.com 1.10,2013-03-12 01:25:00,
2013-03-11 20:40:00,32.3,28.0,29.86,WNW,294,15.0,21.0,85,0.00,,,0.03,weatherlink.com 1.10,2013-03-12 01:40:00,
2013-03-11 20:55:00,32.2,29.0,29.86,NW,306,10.0,18.0,86,0.00,,,0.03,weatherlink.com 1.10,2013-03-12 01:55:00,
2013-03-11 21:10:00,32.2,29.0,29.87,NNW,329,5.0,15.0,87,0.00,,,0.03,weatherlink.com 1.10,2013-03-12 02:10:00,
2013-03-11 21:25:00,32.2,29.0,29.88,WNW,298,8.0,14.0,88,0.00,,,0.03,weatherlink.com 1.10,2013-03-12 02:25:00,
2013-03-11 21:40:00,32.1,29.0,29.88,West,273,9.0,15.0,87,0.00,,,0.03,weatherlink.com 1.10,2013-03-12 02:40:00,
2013-03-11 21:55:00,31.8,28.0,29.89,WNW,291,9.0,20.0,85,0.00,,,0.03,weatherlink.com 1.10,2013-03-12 02:55:00,
2013-03-11 22:10:00,31.7,28.0,29.91,WNW,297,9.0,21.0,85,0.00,,,0.03,weatherlink.com 1.10,2013-03-12 03:10:00,
2013-03-11 22:25:00,31.4,27.0,29.91,NW,304,10.0,24.0,84,0.00,,,0.03,weatherlink.com 1.10,2013-03-12 03:25:00,
2013-03-11 22:40:00,31.3,27.0,29.91,WNW,302,11.0,21.0,85,0.00,,,0.03,weatherlink.com 1.10,2013-03-12 03:40:00,
2013-03-11 22:55:00,31.3,27.0,29.92,WNW,288,14.0,24.0,84,0.00,,,0.03,weatherlink.com 1.10,2013-03-12 03:55:00,
2013-03-11 23:10:00,31.2,27.0,29.92,WNW,288,9.0,19.0,83,0.00,,,0.03,weatherlink.com 1.10,2013-03-12 04:10:00,
2013-03-11 23:25:00,31.0,26.0,29.92,WNW,284,8.0,17.0,83,0.00,,,0.03,weatherlink.com 1.10,2013-03-12 04:25:00,
2013-03-11 23:40:00,30.7,27.0,29.92,WNW,286,13.0,19.0,85,0.00,,,0.03,weatherlink.com 1.10,2013-03-12 04:40:00,
2013-03-11 23:55:00,30.7,26.0,29.93,WSW,257,7.0,21.0,83,0.00,,,0.00,weatherlink.com 1.10,2013-03-12 04:55:00,